COSMOS 2527 (756)

Last updated on July 6, 2021, 3:40 p.m. UTC

1 43508U 18053A   21186.62892492  .00000003  00000-0  00000-0 0  9990
2 43508  64.8991 134.4636 0008818 240.5274 221.5441  2.13102698 23753
UTC
Height (km)
Latitude
Longitude
Inclination
Orbital Period
UTC large
Height (km)
Speed (km/s)
/
Latitude / Longitude
Inclination (degrees)
Orbital Period (minutes)
Azimuth
Elevation
Range (km)
Doppler Factor
iOS Compass Heading
iOS Angle